www.pogodaiklimat.ru

Погода и климат >> Архив погоды >> Канада >> Нунавут >> Талойоак


ПОГОДА в Талойоаке

  • Прогноз погоды в Талойоаке
  • Монитор погоды в Талойоаке

АРХИВ ПОГОДЫ в Талойоаке

Время (UTC), дата Ветер
(напр.,м/с)
 
Видим.   Явления Облачность Т
(С)
Тd
(С)
f
(%)
Тe
(С)
Тes
(С)
Комфортность P
(гПа)
Po
(гПа)
Тmin
(С)
Tmax
(С)
R
(мм)
R24
(мм)
S
(см)
06 13.02 4000 м ледяные иглы {снег} н/о -29.9 -34.0 67 -43 -43 опасность
обморожения
1017.3 1013.4 -35.7 -28.4 0.2 0
09 13.02 Ю 6 11 км 10/10 100 м
[]
-31.0 -35.1 67 -45 -45 опасность
обморожения
1016.4 1012.6
12 13.02 4000 м ледяные иглы {снег} н/о -32.1 -36.2 67 -44 -44 опасность
обморожения
1015.4 1011.6 -32.1 -28.4 29
15 13.02 Ю 4 16 км 9/9 100 м
[]
-32.6 -36.8 66 -45 -45 опасность
обморожения
1014.4 1010.6
18 13.02 С 1 24 км в посл. час снег 6/3 100 м
[St Ac trans]
-32.0 -36.2 66 -36 -36 опасность
обморожения
1013.6 1009.8 -33.3 -29.9 29
21 13.02 СВ 4 24 км 9/9 200 м
[]
-32.5 -36.7 66 -44 -44 опасность
обморожения
1013.1 1009.3
00 14.02 СВ 4 24 км 3/3 100 м
[]
-33.6 -37.9 65 -46 -46 опасность
обморожения
1013.4 1009.5 -33.6 -30.8
03 14.02 СВ 2 16 км ясно -34.8 -39.1 65 -43 -43 опасность
обморожения
1013.1 1009.2
06 14.02 СВ 4 24 км ледяные иглы {снег} ясно -35.3 -39.7 64 -47 -47 опасность
обморожения
1013.5 1009.6 -36.7 -29.9 0.0 29
09 14.02 В 1 24 км ясно -35.7 -40.1 64 -41 -41 опасность
обморожения
1014.6 1010.7
12 14.02 С 2 24 км ледяные иглы {снег} ясно -36.0 -40.4 64 -43 -43 опасность
обморожения
1015.4 1011.5 -36.7 -29.9 29
15 14.02 штиль 0 24 км ясно -36.7 -41.1 64 -37 -37 опасность
обморожения
1016.5 1012.6
18 14.02 С 1 24 км {снег} ясно -35.4 -39.9 63 -37 -36 опасность
обморожения
1017.3 1013.4 -37.3 -33.4 0.0 29
21 14.02 С 1 24 км 4/4 300 м
[]
-35.2 -39.6 64 -37 -37 опасность
обморожения
1018.5 1014.6
00 15.02 Ю 2 16 км ледяные иглы {снег} 9/6 100 м
[St Ac trans]
-32.7 -37.0 65 -41 -41 опасность
обморожения
1019.3 1015.4 -37.3 -32.7 0.0 29
03 15.02 Ю 2 12 км 9/9 100 м
[]
-31.1 -35.2 67 -37 -37 опасность
обморожения
1019.8 1015.9
06 15.02 З 3 9000 м слаб. снег 9/8 300 м
[Cu Sc Ac trans]
-29.7 -33.7 68 -39 -39 опасность
обморожения
1020.1 1016.2 -37.3 -29.7 0.0 29
09 15.02 С 3 11 км 9/9 300 м
[]
-30.7 -34.8 67 -40 -40 опасность
обморожения
1020.9 1017.0
12 15.02 С 2 11 км слаб. снег 10/10 600 м
[Cu Sc]
-31.4 -35.6 66 -39 -39 опасность
обморожения
1021.8 1017.9 -32.7 -29.7 0.2 29
15 15.02 СВ 1 16 км 10/10 600 м
[]
-29.8 -33.8 68 -34 -34 опасность
обморожения
1022.5 1018.6
18 15.02 Ю 2 24 км слаб. снег 9/9 600 м
[Sc]
-28.2 -32.1 69 -34 -34 опасность
обморожения
1023.1 1019.2 -36.9 -28.1 0.0 29
21 15.02 Ю 3 24 км 9/9 300 м
[]
-26.8 -30.6 70 -35 -35 опасность
обморожения
1023.9 1020.0
00 16.02 С 2 24 км слаб. снег 9/9 300 м
[Sc]
-27.6 -31.5 69 -33 -33 опасность
обморожения
1024.7 1020.8 -32.6 -26.8 0.0 29
03 16.02 С 4 24 км 1/1 600 м
[]
-33.2 -37.4 66 -45 -45 опасность
обморожения
1025.5 1021.6
06 16.02 С 2 24 км {снег} 3 балла -30.5 -34.5 68 -38 -38 опасность
обморожения
1026.2 1022.3 -34.0 -26.8 0.2 29
09 16.02 С 1 24 км 1/0
[]
-31.5 -35.5 68 -33 -33 опасность
обморожения
1027.0 1023.1
12 16.02 ЮВ 1 24 км {снег} 1/0
[Ci sp]
-32.9 -37.0 67 -37 -37 опасность
обморожения
1027.6 1023.7 -34.1 -26.8 0.0 29
15 16.02 С 2 24 км 3/0 2000 м
[]
-32.8 -36.9 67 -39 -39 опасность
обморожения
1028.3 1024.4
18 16.02 Ю 1 24 км 1/0
[Ci fib]
-34.2 -38.6 64 -39 -38 опасность
обморожения
1029.1 1025.2 -35.1 -30.4 29
21 16.02 Ю 2 24 км 3/0
[]
-34.9 -39.3 64 -42 -42 опасность
обморожения
1029.7 1025.8
00 17.02 Ю 2 24 км ясно -36.6 -41.0 64 -44 -44 опасность
обморожения
1030.6 1026.7 -37.2 -30.5
03 17.02 ЮЗ 1 24 км ясно -37.0 -41.4 63 -42 -42 опасность
обморожения
1031.0 1027.1
06 17.02 Ю 1 24 км ледяные иглы {снег} ясно -37.4 -41.9 63 -42 -42 опасность
обморожения
1030.9 1027.0 -38.0 -30.4 0.0 29
09 17.02 Ю 2 24 км ясно -37.8 -42.3 63 -45 -45 опасность
обморожения
1031.1 1027.1
12 17.02 ЮВ 1 24 км слаб. снег ясно -38.5 -43.0 62 -44 -44 опасность
обморожения
1031.3 1027.3 -38.8 -30.4 0.0 29
15 17.02 ЮЗ 2 24 км 1/1 1000 м
[]
-38.9 -43.5 62 -46 -46 опасность
обморожения
1030.9 1026.9
18 17.02 Ю 3 24 км ледяные иглы {снег} ясно -38.6 -43.1 62 -49 -49 опасность
обморожения
1030.3 1026.3 -39.5 -37.4 29
21 17.02 Ю 3 24 км ясно -38.2 -42.8 62 -50 -50 опасность
обморожения
1029.2 1025.2
00 18.02 Ю 2 24 км {снег} ясно -39.6 -44.2 61 -49 -49 опасность
обморожения
1028.1 1024.1 -39.8 -37.7
03 18.02 Ю 2 24 км ясно -40.3 -45.0 60 -50 -50 опасность
обморожения
1026.8 1022.8
06 18.02 Ю 3 24 км слаб. снег ясно -40.8 -45.5 60 -52 -52 опасность
обморожения
1025.1 1021.1 -41.0 -37.4 0.0 29
09 18.02 Ю 4 24 км ясно -40.9 -45.5 61 -55 -55 опасность
обморожения
1023.2 1019.2
12 18.02 Ю 5 24 км ледяные иглы {снег} ясно -40.7 -45.4 60 -55 -55 опасность
обморожения
1021.5 1017.5 -41.4 -37.4 0.0 29
15 18.02 Ю 3 24 км ясно -41.3 -46.0 60 -53 -53 опасность
обморожения
1019.5 1015.5
18 18.02 Ю 4 24 км в посл. час снег ясно -40.0 -44.7 61 -54 -53 опасность
обморожения
1018.3 1014.3 -41.4 -40.0 29
21 18.02 Ю 5 16 км ясно -40.0 -44.7 61 -55 -54 опасность
обморожения
1016.9 1013.0
00 19.02 Ю 4 24 км ледяные иглы {снег} ясно -40.1 -44.8 61 -54 -54 опасность
обморожения
1015.5 1011.6 -41.4 -39.1
03 19.02 Ю 5 24 км ясно -39.9 -44.6 61 -54 -54 опасность
обморожения
1014.2 1010.3
06 19.02 Ю 3 24 км ледяные иглы {снег} ясно -39.9 -44.5 61 -52 -52 опасность
обморожения
1013.1 1009.2 -41.4 -39.1 0.0 29
09 19.02 Ю 5 24 км ясно -39.9 -44.5 61 -55 -55 опасность
обморожения
1012.1 1008.2
12 19.02 Ю 4 24 км ледяные иглы {снег} 3/0 2000 м
[Ac trans]
-39.5 -44.1 61 -53 -53 опасность
обморожения
1011.5 1007.6 -40.5 -39.1 0.0 29
15 19.02 Ю 3 24 км 4/0
[]
-39.6 -44.2 61 -51 -51 опасность
обморожения
1010.9 1007.0
18 19.02 Ю 4 24 км ледяные иглы {снег} 1/0
[Ac trans Ci fib]
-36.4 -41.0 62 -48 -48 опасность
обморожения
1010.6 1006.7 -40.5 -36.4 29
21 19.02 Ю 2 24 км ясно -35.2 -39.7 63 -44 -43 опасность
обморожения
1011.0 1007.1
00 20.02 СЗ 7 24 км ледяные иглы {снег} ясно -29.6 -33.6 68 -44 -44 опасность
обморожения
1011.2 1007.3 -40.5 -29.2
03 20.02 СЗ 9 24 км 4/0
[]
-27.8 -31.7 69 -43 -43 опасность
обморожения
1011.1 1007.2

 

Местоположение метеостанции Талойоак (Нунавут, Канада): широта 69.55 долгота -93.58 высота над уровнем моря 28 м.

В архиве по умолчанию представлена погода в Талойоаке за последнюю неделю. Архивные данные за месяц целиком и за предыдущие месяцы, начиная с января 2011 года, Вы можете получить, выбрав интересующий диапазон дат из раскрывающегося списка и нажав кнопку "Ввод!".


*Определитесь, кто Вы:
робот инопланетянин человек

Внимание! Время в таблицах - всемирное. Для получения местного времени необходимо прибавить поправку, которая равна -6 ч.

Смотрите также архив погоды в соседних городах и на ближайших метеорологических станциях:

Погода в Шеперд-Бее (Нунавут, Канада) (81 км)
Погода в Джойа Хейвен (Нунавут, Канада) (136 км)
Погода в Кугааруке (Нунавут, Канада) (188 км)
Погода в Кам Фор (Нунавут, Канада) (198 км)
Погода на Острове Хат (Нунавут, Канада) (291 км)
Погода в Глеичене (Альберта, Канада) (405 км)
Погода в Вейджер Бэй (Нунавут, Канада) (444 км)
Погода в Кеймбридж-Бее (Нунавут, Канада) (454 км)
Погода в Кембридж Бэй (Нунавут, Канада) (454 км)
Погода в Арктик Бей (Нунавут, Канада) (490 км)

Пояснения к столбцам:

Ветер - указаны скорость ветра в м/с - средняя за 10 мин, порывы в срок и между сроками (в фигурных скобках) и направление, откуда дует ветер: С - северный, СВ - северо-восточный, В - восточный, ЮВ - юго-восточный, Ю - южный, ЮЗ - юго-западный, З - западный, СЗ - северо-западный.
Видимость - горизонтальная дальность видимости в метрах или километрах. При видимости от 1 до 10 км при отсутствии осадков обычно наблюдается дымка, при ухудшении видимости до 1 км и менее - туман. В сухую погоду видимость может ухудшаться дымом, пылью или мглою.
Явления - указаны атмосферные явления, наблюдавшиеся в срок или в последний час перед сроком; фигурными скобками обозначены явления, наблюдавшиеся между сроками (за 1-3 часа до срока); квадратными скобками обозначены град или гололедные отложения с указанием их диаметра в мм.
Облачность - указаны через наклонную черту общая и нижняя облачность в баллах и высота нижней границы облаков в метрах; квадратными скобками обозначены формы облаков: Ci - перистые, Cs - перисто-слоистые, Cc - перисто-кучевые, Ac - высококучевые, As - высокослоистые, Sc - слоисто-кучевые, Ns - слоисто-дождевые, Cu - кучевые, Cb - кучево-дождевые. Подробнее классификацию облаков см. в Атласе облаков (PDF).
T - Температура воздуха - температура, измеренная на высоте 2 м над землей.
Td - Температура точки росы - температура, при понижении до которой содержащийся в воздухе водяной пар достигнет насыщения.
f - Относительная влажность воздуха - влажноcть воздуха, измеренная на высоте 2 м над землей.
Te - Эффективная температура - температура, которую ощущает одетый по сезону человек в тени. Характеристика душности погоды. При расчете учитывается влияние влажности воздуха и скорости ветра на теплоощущения человека.
Tes - Эффективная температура на солнце - температура, которую ощущает человек, с поправкой на солнечный нагрев. Характеристика знойности погоды. Зависит от высоты солнца над горизонтом, облачности и скорости ветра. Ночью, в пасмурную погоду, а также при ветре 12 м/с и более поправка равна нулю.
P - Атмосферное давление - приведенное к уровню моря атмосферное давление.
Po - Атмосферное давление - измеренное на уровне метеостанции атмосферное давление.
Tmin - Минимальная температура - минимум температуры воздуха на высоте 2 м над землей.
Tmax - Максимальная температура - максимум температуры воздуха на высоте 2 м над землей.
R - Количество осадков - Количество выпавших осадков за период времени, мм. При наведении курсора мыши на число - период времени, за который выпало указанное количество осадков.
R24 - Количество осадков - Количество выпавших осадков за 24 часа, мм.
S - Снежный покров - Высота снежного покрова, см. При наведении курсора мыши на число - состояние снежного покрова и степень покрытия местности в баллах.